C/1999 N4 (LINEAR)                                                    

Epoch 2000 May 16.0 TT = JDT 2451680.5  

T 2000 May 23.73482 TT                                  Nakano

q   5.5047545            (2000.0)            P               Q

z  -0.0007652      Peri.   90.42906     -0.23135670     -0.96817222

 +/-0.0000018      Node   345.90131     -0.97285385     +0.23078372

e   1.0042124      Incl.  156.92288     +0.00542754     +0.09685776

From 303 observations 1998 Aug. 27-2002 Apr. 12, mean residual 0".67.

   (1/a)org.= +0.000057, (1/a)fut.= +0.000012 (+/-0.000002), Q= 8.

Residuals in seconds of arc 

1998/                     990813 372 (2.3+  1.3+)   000706 704 (2.7+  0.9+) 

980827 704  0.2-  0.5-    990829 402  1.6-  0.4+    000706 704  0.4+  1.5+  

980827 704  0.6+  1.8-    990829 402  0.6+  1.4+    000706 704  1.6+  0.1-  

980827 704  0.5-  0.2+    990829 402  1.5+  1.6+    000706 493  0.1-  0.2+  

980827 704 (0.7-  2.2-)   990910 561  0.4+  0.6+    000706 493  1.0-  0.1+  

980827 704 (5.3-  1.0+)   990910 561  0.4+  0.7+    000706 493  0.3-  0.2+  

1999/                     990910 561  0.8+  0.9+    000706 493  0.8-  0.3+  

990712 704  0.8-  0.6-    990929 402  0.4+  0.2+    000709 608  1.6-  0.3-  

990712 704  0.6+  1.2+    990929 402  0.4-  0.3-    000709 608  1.4-  0.1-  

990712 704  0.1-  0.8+    990929 402  0.3+  0.3+    000709 608  1.1-  0.2-  

990712 704 (2.8+  1.5-)   991003 360  0.6+  0.5+    000709 493  0.0   0.2-  

990712 704  0.2+  0.8+    991003 360  1.2+  0.1+    000709 493  0.1+  0.1-  

990713 704  0.3+  0.2+    991003 360  1.5+  0.6+    000709 493  0.1-  0.2-  

990713 704  0.7-  0.6-    2000/                     000721 360  0.1-  0.2-  

990713 704  0.7-  0.0     000313 360  0.4+  0.5-    000721 360  0.2-  0.3-  

990713 557  0.5-  0.0     000313 360  0.4+  0.1-    000729 349  1.2-  1.8-  

990713 557  0.3+  0.1+    000313 360  0.1+  0.4-    000729 349  0.8-  0.4+  

990713 557  0.8-  0.1-    000314 402  0.5+  0.1-    000729 349  0.9+  0.1-  

990714 557  0.5-  0.6-    000314 402  0.3+  0.7-    000803 704  1.8+  1.4+  

990714 704  0.4+  1.2-    000314 402  0.6+  0.3-    000803 704  1.2-  0.2+  

990714 704  0.1+  0.1-    000314 360  0.2+  0.2-    000803 704  0.6+  0.0   

990714 704  0.5-  0.6-    000314 360  0.0   0.4-    000803 704  1.0+  0.4-  

990714 704  0.1-  0.3+    000329 349 (1.3+  2.0-)   000803 704  0.3-  0.4-  

990714 426  0.3-  0.2+    000329 349 (2.6+  2.0-)   000814 860  0.5+  1.8+  

990714 426  0.3-  0.5-    000405 860  1.9+  0.3+    000814 860  1.3+  0.6+  

990714 426  0.5+  0.1-    000405 860  0.1+  0.7-    000814 860 (0.4+  2.2-) 

990714 046  0.1-  1.1-    000415 118  0.3+  0.3+    000829 867  0.4+  0.0   

990714 046  1.3-  0.1-    000415 118  0.2+  0.3+    000829 867  0.4-  0.1+  

990714 046 (2.3-  2.3-)   000426 704  0.3+  0.4-    000829 867  0.7-  0.3-  

990714 118 (1.0+  2.3-)   000426 704  0.7+  0.8-    000920 360  0.9-  0.2-  

990714 118  0.3-  0.0     000426 704  0.7+  0.6+    000920 360  0.5-  0.1+  

990715 734  0.4+  1.6+    000426 704  0.2-  0.4+    2001/                   

990715 734  0.3-  0.2+    000426 704  0.9+  0.9+    010319 699 (3.7+  0.8+) 

990715 734  0.6+  0.1+    000426 704  0.6+  0.2-    010319 699 (3.7+  0.3+) 

990715 426  0.6-  0.2-    000426 704  1.0-  1.3+    010319 699 (2.9+  0.1+) 

990715 426  0.6-  0.1-    000426 704  0.3-  0.4+    010319 699 (3.2+  0.2+) 

990715 046  0.2-  0.2-    000426 704  0.1+  0.3+    010321 402  0.2+  0.1+  

990715 046  0.4-  0.3+    000426 704  1.2-  0.3+    010321 402  0.1-  0.3+  

990715 046  0.3-  0.0     000429 402 (2.3-  3.6+)   010321 402  0.3+  0.1-  

990715 046  0.2+  0.0     000429 402  0.5-  0.2+    010321 867  0.2+  0.3+  

990715 108 (4.6+  1.9-)   000503 900  0.6+  0.5+    010321 867  0.3-  0.3+  

990715 108 (2.0+  0.7-)   000503 900  0.7+  0.2+    010321 360  0.2-  0.1+  

990716 704  0.1+  0.3+    000504 704  0.9+  0.4-    010321 360  0.1-  0.1+  

990716 704  0.1-  0.6-    000504 704 (4.3+  3.6-)   010323 608  0.3+  0.0   

990716 704  0.4-  0.0     000504 704 (1.2-  3.0+)   010323 608  0.6+  0.3-  

990716 611  1.6+  0.2-    000504 704  0.5-  0.5-    010323 608  0.2+  0.5-  

990716 143  1.1+  1.2-    000504 704  1.1+  0.3+    010324 682  0.3+  0.4-  

990716 611  0.3+  0.8+    000505 867  0.5-  0.3+    010324 682  1.0-  0.0   

990716 143  1.4+  0.1+    000505 867  0.4-  0.4+    010325 682  1.3+  0.1+  

990716 143  1.5+  0.1-    000505 867  0.9+  0.7-    010325 682  0.9+  0.2+  

990716 557  0.8-  0.3+    000508 360  0.0   0.1-    010326 903 (6.0+  1.0-) 

990716 621  1.9-  0.3-    000508 360  0.2+  0.5-    010326 903 (2.2+  0.8+) 

990716 557  0.3-  0.7-    000522 159  0.2-  0.2-    010326 349  0.3+  0.1-  

990716 557  0.0   0.1+    000522 159  0.3-  0.5-    010326 349  0.1+  1.5+  

990716 621  1.0-  0.6-    000522 159  0.0   0.5-    010326 349  1.7-  1.7+  

990717 621  0.6-  0.5+    000522 159  0.9-  0.3-    010330 704 (3.1+  1.8-) 

990717 621  0.9-  0.3+    000522 159  0.7-  1.0-    010330 704 (2.0+  0.5-) 

990717 428  0.6+  0.4-    000529 402  0.4+  0.3+    010330 704  0.3+  0.8+  

990717 426  0.2-  0.2+    000529 402  0.9+  0.1-    010330 704  0.1+  0.8+  

990717 426  0.3-  0.3+    000529 402  0.1+  0.1+    010411 170  1.3+  0.9-  

990717 426  0.2-  0.8-    000529 360  0.3-  0.3-    010414 682  0.7-  0.3+  

990717 046  0.7-  0.4+    000529 360  0.0   0.1-    010414 682  0.0   1.2+  

990717 046  0.5-  0.1+    000601 352  0.2-  0.3-    010422 900  0.1+  1.0-  

990717 118 (3.4+  1.7-)   000601 352  0.9+  0.3+    010422 900  0.6+  0.4-  

990717 046  0.3-  0.2-    000601 352  1.0+  0.6+    010422 360  0.4-  0.3-  

990717 118  0.1-  0.9-    000601 118  0.1+  0.2-    010422 360  0.4-  0.3-  

990717 046  0.2-  0.1-    000601 118  0.2+  0.4+    010427 704  0.4-  0.5-  

990717 118  0.0   0.8-    000606 367  0.4+  0.2-    010427 704  0.0   0.2+  

990717 106  0.3+  1.1+    000606 367  0.7-  0.5+    010427 704  0.2-  0.7+  

990717 106  0.3+  0.6+    000606 367  0.3+  0.2+    010429 170  0.7-  0.8+  

990717 621  0.7-  0.2+    000606 900  0.1+  0.3+    010429 170  1.4-  0.0   

990717 106  0.1+  0.0     000606 900  0.1-  0.4+    010501 704  0.5+  1.3-  

990717 621  0.8-  0.1+    000607 367  0.5-  0.4-    010501 704  0.2+  0.3+  

990717 621  0.4-  0.1+    000607 367  0.0   0.6-    010501 704  1.0+  1.2-  

990717 859  1.4+  0.2+    000607 367  0.1-  0.2-    010501 704  0.4+  0.2+  

990718 859 (2.1+  1.2-)   000607 360  0.0   0.4-    010512 170  1.6-  1.4+  

990718 859  1.4+  1.0-    000607 360  0.1-  0.5-    010512 367 (2.3-  0.2+) 

990718 621  0.2+  0.1+    000607 402  0.1+  0.7-    010512 367  1.2-  0.1+  

990718 621  0.1-  0.0     000607 402  0.2-  0.2-    010512 367  1.9-  0.4+  

990718 621  0.3+  0.3-    000607 402  0.1-  0.1-    010512 170  1.2-  1.0+  

990718 621  0.1+  0.2+    000608 046  0.2+  0.1+    010519 360  0.4-  0.6-  

990718 113  0.1+  0.6+    000608 046  0.1+  0.2+    010519 360  0.2-  0.5-  

990722 704  1.3-  0.1+    000608 046  0.2-  0.0     010522 699 (3.8+  0.2+) 

990722 704  0.5+  0.4-    000609 608  0.4-  0.6+    010522 699 (4.7+  0.2+) 

990722 704  1.0+  0.4+    000609 608  0.1-  0.4+    010522 699 (3.3+  0.8+) 

990722 704  1.5+  0.2+    000609 608  0.3-  0.2+    010522 699 (4.9+  0.1-) 

990722 402  0.0   0.1+    000610 608  0.2-  0.1+    010523 704  1.0+  0.2+  

990722 402  0.3-  0.7-    000610 608  0.9+  0.0     010523 704  0.8+  0.0   

990722 402  0.5-  1.3-    000610 608  0.4+  0.2-    010523 704  0.7+  0.1-  

990723 848  0.4+  0.6+    000611 704  0.3+  0.5+    010523 704  0.1+  0.7-  

990723 848  0.8+  0.5+    000611 704  0.3+  0.9-    010527 170  1.6-  1.9+  

990723 402  0.4-  0.3-    000611 704  0.1+  0.3+    010530 682  1.2+  0.3-  

990723 402  0.6+  0.1-    000611 704  0.7+  0.4-    010530 682  1.8+  0.7-  

990723 402  0.8+  0.9+    000611 704  0.1+  0.0     010530 682  1.3+  0.8-  

990725 848  0.5+  1.0+    000612 704  0.1-  0.3-    010613 699 (3.6+  0.4+) 

990725 848  0.0   0.5+    000612 704  0.2+  0.1-    010613 699 (3.1+  0.6-) 

990725 848  0.7-  0.1+    000612 704  0.2+  0.1-    010613 699 (4.0+  0.5+) 

990730 402  0.6+  0.2+    000612 704  0.4+  0.2+    010613 699 (2.8+  0.2+) 

990730 402  0.7+  0.5+    000612 704  1.5+  0.7-    010617 682  0.1-  0.1-  

990730 402  1.1+  0.2+    000619 402  0.7-  0.2-    010617 682  0.3+  0.6-  

990802 621  0.5-  0.7+    000619 402  0.9-  0.6+    010617 682  0.4+  0.0   

990802 621  0.1+  0.8+    000619 402  0.1+  0.5-    010623 504  1.3+  0.1+  

990802 621  1.3-  0.8-    000621 608  1.7-  0.3-    010623 504  1.6+  0.4-  

990803 118  0.8-  0.9+    000621 608  0.8-  0.4-    010623 504  0.4+  0.0   

990803 118  0.6-  0.3-    000621 608  1.5-  1.3-    2002/                   

990804 118  1.2-  1.6-    000630 360  0.0   0.1-    020114 644  1.7-  0.6-  

990804 118 (1.0-  2.1-)   000630 360  0.3-  0.1-    020313 360  1.0-  0.9-  

990804 621  0.0   0.6+    000701 349  0.2-  0.5+    020313 360  1.0+  1.7-  

990804 621  0.1-  0.7-    000701 349  0.2+  1.7-    020313 360 (2.2+  0.1-) 

990804 621  0.5-  0.1-    000701 349  1.2-  1.1+    020321 170 (6.3+  5.0-) 

990806 118  1.2+  0.1-    000704 493  0.3-  0.4-    020321 170  0.4+  0.0   

990806 118  0.1+  0.4-    000704 493  1.0-  0.5-    020412 644  0.2-  0.5+  

990808 372 (2.3+  0.9+)   000704 493  1.1-  0.6-    020412 644  0.1+  0.5+  

990810 897  0.2-  0.6+    000705 402  0.1-  0.3-    020412 644  0.1-  1.2+  

990810 897  0.1+  0.3-    000705 402  0.7-  0.0     

990810 897  0.8-  0.5-    000705 402  0.5+  0.1+    



NAKANO

         **** Don't distribute anyone except personal use only ****

                (C) Copyright 2003 OAA/ComputingSection

write mail from CFAD0::NAKANO on 2003-02-19 01:17:07(JST).

 

◎C/1999 N4の軌道と予報位置です



 昨年,久万の中村彰正氏からこの彗星の2002年3月12日の観測が報告され

ました.1夜の観測であったため,続く観測を待っていましたが,ようやく

パロマ−からのその1カ月後に行なわれた2002年4月12日の観測が報告され

ました.中村氏の CCD全光度は18.8等,パロマ−の核光度は20.9等でした.

